Regional Weather Roundup
Issued by NWS

Home | Current Version | Previous Version | Text Only | Print | Product List | Glossary On
Versions: 1 2 3 4 5 6 7 8 9 10 11 12 13 14 15 16 17 18 19 20 21 22 23 24 25 26 27 28 29 30 31 32 33 34 35 36 37 38 39 40 41 42 43 44 45 46 47 48 49 50
637
ASUS44 KLIX 252305
RWRLA
LOUISIANA WEATHER ROUNDUP
NATIONAL WEATHER SERVICE NEW ORLEANS LA
600 PM CDT SAT OCT 25 2014

NOTE: "FAIR" INDICATES FEW OR NO CLOUDS BELOW 12,000 FEET WITH NO
      SIGNIFICANT WEATHER AND/OR OBSTRUCTIONS TO VISIBILITY.
      SKY/WX - SKY CONDITION AND SIGNIFICANT WEATHER.
      TMP - AIR TEMPERATURE.    DP   - DEWPOINT TEMPERATURE.
      RH  - RELATIVE HUMIDITY.  PRES - PRESSURE.
      HX  - HEAT INDEX.         WCI  - WIND CHILL INDEX.

*  THESE STATIONS ARE NOT NWS OR FAA STATIONS AND ARE NOT UNDER
   NWS QUALITY CONTROL.

LAZ040-048-061>063-065-066-069-260000-
SOUTHEAST LOUISIANA

CITY           SKY/WX    TMP DP  RH WIND       PRES   REMARKS
N.O. AUDUBON   NOT AVBL
N.O. INTL ARPT CLEAR     75  56  51 NW7       30.06F
N.O. LAKEFRONT CLEAR     75  61  61 W6        30.07S
N.O. DOWNTOWN* FAIR      79  52  38 W3        30.07S
SLIDELL        CLEAR     73  57  57 SW5       30.06R
BATON ROUGE    CLEAR     77  53  43 NW5       30.07F
BOOTHVILLE     CLEAR     71  56  58 CALM      30.07F
BELLE CHASSE   CLEAR     73  55  53 CALM      30.06S
BOGALUSA*        N/A     78  57  48 N5        30.07S
NEW ROADS*     FAIR      77  54  44 CALM      30.08S
GONZALES*      FAIR      72  60  67 NW5       30.06F
HAMMOND*       CLEAR     77  55  47 CALM      30.08S
HOUMA*         CLEAR     75  54  46 NW3       30.07S
PORT FOURCHON* CLEAR     73  59  60 SE3       30.10F

$$

LAZ041-044-053-054-260000-
SOUTHWEST LOUISIANA

CITY           SKY/WX    TMP DP  RH WIND       PRES   REMARKS
LAKE CHARLES   CLEAR     76  55  48 S5        30.09S
LAFAYETTE      CLEAR     79  48  33 W5        30.08F
PATTERSON      CLEAR     75  55  50 NW5       30.11S
SALT POINT       N/A     73  64  73 SW3       30.08S
NEW IBERIA     CLEAR     80  54  40 N3        30.09S
CHENAULT AIRPK NOT AVBL

$$

LAZ027-028-260000-
CENTRAL LOUISIANA

CITY           SKY/WX    TMP DP  RH WIND       PRES   REMARKS
FORT POLK      CLEAR     79  51  38 W3        30.08F
ALEXANDRIA INT CLEAR     79  53  40 SW5       30.06F
ALEXANDRIA     CLEAR     72  60  66 CALM      30.08F

$$

LAZ001-002-260000-
NORTHWEST LOUISIANA

CITY           SKY/WX    TMP DP  RH WIND       PRES   REMARKS
SHREVEPORT     CLEAR     81  64  56 SW3       30.06S
BARKSDALE AFB  CLEAR     83  62  50 W6        30.06F
DTN SHREVEPORT CLEAR     81  62  52 W3        30.06F

$$

LAZ014-016-260000-
NORTHEAST LOUISIANA

CITY           SKY/WX    TMP DP  RH WIND       PRES   REMARKS
MONROE         CLEAR     78  60  53 CALM      30.08R
TALLULAH       CLEAR     74  61  63 W3        30.07R

$$




USA.gov is the U.S. government's official web portal to all federal, state and local government web resources and services.